User: anonymous   Login
Location: Caltech
(34.1382°N, 118.1253°W)
Time: 15:11:57
(UTC-08:00)
Language:

SL-16 R/B - Orbit

View from above orbital plane
View from above orbital plane
View from above satellite
View from above satellite

Ground track
Ground track

The orbit data is extracted from the following two-line orbital elements,

1 31793U 07029B   18050.90582148 +.00000293 +00000-0 +17787-3 0  9999
2 31793 070.9733 228.8192 0001712 255.2674 208.2345 14.14394268549709
Epoch (UTC): 19 February 2018 21:44:22
Eccentricity: 0.0001712
inclination: 70.9733°
perigee height: 843 km
apogee height: 845 km
right ascension of ascending node: 228.8192°
argument of perigee: 255.2674°
revolutions per day: 14.14394268
mean anomaly at epoch: 208.2345°
orbit number at epoch: 54970

The dashed part of the orbit path shows where the satellite is in the earth's shadow,  

DLR